User: anonymous   Login
Location: Koussan�
(15.2012°N, 12.5548°W)
Time: 23:30:33
(UTC+00:00)
Language:

Cosmos 1825 Rocket - Orbit

View from above orbital plane
View from above orbital plane
View from above satellite
View from above satellite

Ground track
Ground track

The orbit data is extracted from the following two-line orbital elements,

1 17567U 87024B   21018.55041439  .00000067  00000-0  51452-5 0  9995
2 17567  82.5277  51.5382 0018680 344.3600  15.7035 14.83788268830913
Epoch (UTC): 18 January 2021 13:12:35
Eccentricity: 0.0018680
inclination: 82.5277°
perigee height: 604 km
apogee height: 630 km
right ascension of ascending node: 51.5382°
argument of perigee: 344.3600°
revolutions per day: 14.83788268
mean anomaly at epoch: 15.7035°
orbit number at epoch: 83091

The dashed part of the orbit path shows where the satellite is in the earth's shadow,  

DLR